FIREFLY ALPHA R/B, 60210

Orbit data source: Space-Track

FIREFLY ALPHA R/B, 60210 is space debris in SSO originally from a launch on Thu, 04 Jul 2024 UTC launched from the Air Force Western Test Range (AFWTR). Debris objects in space refer to the collection of defunct objects orbiting the Earth. Examples of debris include non-operational satellites, rocket bodies, and fragments generated from explosions, collisions, or faulty payload assembly.

Loading next visibility...
Identifier
60210, 2024-125H
Orbit
SSO
Last TLE update
9 hours ago
Origin
Manufacturer
Firefly
Mission
Spacecraft
Bus & Motor
FIREFLY A2, Unknown motor
Mass
909 kg wet, 909 kg dry
Launch date (UTC)
2024-07-04 (10 months ago)
Launch vehicle
Unknown
Launch site
Air Force Western Test Range (AFWTR)
Object type
Payload
Rocket body
Debris
Shape & HBR
Unknown
Radar Cross Section
Large (>1 m²)

Expand to show TLE details & history

TLE from 9 hours ago
0 FIREFLY ALPHA R/B
1 60210U 24125H   25128.88832688  .00018793  00000-0  44303-3 0  9997
2 60210  97.2739 344.9334 0036798 228.2074 131.6028 15.41231798 47290
Epoch: 2025-05-08T21:19Z
Definitive object data (Epoch: 2025-05-08T21:19:11.442Z)
Latitude
0.00001°
Longitude
158.18336°
Altitude
462.315 km
Speed
7.626 km/s
True Right ascension
22h 59m 44s
True Declination
0° 00' 00"
Sunlit
Object was in daylight at TLE epoch
Visualization TLE readout
Latitude
13.56611°
Longitude
-19.70823°
Altitude
432.428 km
Speed
7.66 km/s
Apparent Right ascension
07h 57m 18s
Apparent Declination
-28° 58' 07"
Sunlit
Object is in full shadow
Visualization observer readout
Local Sidereal Time
13:58:43
Azimuth
247.184° WSW
Elevation
-18.354°
Doppler factor
1
Orbital elements
Apogee altitude
464.492 km
Perigee altitude
414.317 km
Semi-major axis
6,817.542 km
Eccentricity
0.0036798
Inclination
97.2739°
RAAN
344.9334°
Arg. of periapsis
228.2074°
True anomaly
131.91715°
Mean anomaly
131.6028°
Eccentric anomaly
131.76007°
Mean motion
3.85568 °/min
BSTAR
0.00044303
Orbital period
93.37 mins
Loading maneuver chart data...
Loading SW <> Apogee altitude chart data...
Loading historical data...
Loading historical data...
Loading historical data...
Loading historical data...
Loading historical data...
Loading historical data...
Loading historical data...

FIREFLY ALPHA R/B Visibility forecast

Observer location: undefined°, undefined°

Span
Click to sort rows by Start time (UTC) header in descending order
Start Az.
Max El. time (UTC)
Max El. Az.
Max El.
End time (UTC)
End Az.
6 mins2025-05-09 14:34:58.916Z177.989° S2025-05-09 14:37:58.916Z256.227° W41.915°2025-05-09 14:40:58.916Z340.475° N
4 mins2025-05-10 03:29:58.916Z352.741° N2025-05-10 03:31:58.916Z269.804° W37.986°2025-05-10 03:33:58.916Z213.042° SW
|